FLOCK 4Y 14

导读 | 星芒AI

FLOCK 4Y 14 是由 Planet Labs 运营的 Dove 系列地球观测卫星之一,属于 Flock 4Y 卫星群。该卫星主要用于高分辨率光学成像,支持全球范围内的日常地球监测,广泛应用于环境监测、农业管理、灾害响应等领域。Flock 4Y 14 于 2018 年发射,搭载多光谱传感器,具备快速重访能力和高图像质量,是 Planet 公司构建大规模卫星星座、实现全球每日影像覆盖计划的重要组成部分。

基本信息
目录编号:
55024
目录名称:
FLOCK 4Y 14
国际标识:
2023-001R
轨道中心:
EARTH
卫星名称:
FLOCK 4Y 14
卫星全名:
--
卫星状态:
已陨落 最后检测时间 2025-09-21
发射日期:
2023-01-03 UTC
国别 :
美国 (US)
星等 :
--
轨道信息
数据来源 国际轨道数据
星历时间: 2025-09-20T04:41:48+0800
轨道信息已过期78天
半长轴: 6591.782km
偏心率: 0.0013032
轨道倾角: 97.355°
近地点辐角 260.183°
升交点赤经 341.277°
平近点角 99.798°
近地点: 205.056km
远地点: 222.238km
周期: 88.770分钟
每日圈数: 16.221783
详细信息
使用方式:
暂无